PROBA-1 1 26958U 01049B 25348.95313406 .00003542 00000+0 23604-3 0 9998 2 26958 97.9588 346.1902 0056824 26.8306 333.5839 15.06467265315873 CUTE-1 (CO-55) 1 27844U 03031E 25348.90843721 .00000404 00000+0 19435-3 0 9990 2 27844 98.6765 354.7835 0009671 7.2612 352.8706 14.24180995165448 CUBESAT XI-IV (CO-57) 1 27848U 03031J 25348.94629569 .00000342 00000+0 16957-3 0 9997 2 27848 98.6791 354.6809 0009884 24.7467 335.4184 14.23488795165163 APRIZESAT 4 1 35684U 09041D 25348.67527605 .00001227 00000+0 15393-3 0 9995 2 35684 98.1642 55.1830 0043182 198.2892 161.6771 14.83497677884002 APRIZESAT 3 1 35686U 09041F 25348.88080198 .00002210 00000+0 19850-3 0 9996 2 35686 98.1789 128.6809 0061568 316.5658 43.0719 14.95430300888823 PROBA-2 1 36037U 09059B 25348.77600765 .00000416 00000+0 10760-3 0 9999 2 36037 98.2372 169.7273 0014078 127.3147 232.9336 14.54713283854713 APRIZESAT 5 1 37792U 11044E 25348.74515618 .00001394 00000+0 18535-3 0 9998 2 37792 98.2356 271.7426 0051486 235.8576 123.7747 14.80580160771494 APRIZESAT 6 1 37793U 11044F 25348.98425094 .00001112 00000+0 16517-3 0 9999 2 37793 98.2459 250.6569 0042575 316.6492 107.2801 14.76540553769961 PROBA-V 1 39159U 13021A 25348.89991386 .00000108 00000+0 65266-4 0 9996 2 39159 98.3391 331.8180 0003448 326.8236 33.2726 14.23548124654894 APRIZESAT 7 1 39416U 13066A 25348.83621907 .00001665 00000+0 17226-3 0 9995 2 39416 97.7471 300.0618 0037860 101.8198 258.7271 14.90910838653751 APRIZESAT 8 1 39425U 13066K 25348.81612876 .00001427 00000+0 16200-3 0 9995 2 39425 97.8005 294.1778 0046530 170.7326 189.4759 14.87118398652260 BUGSAT-1 (TITA) 1 40014U 14033E 25348.96973309 .00005681 00000+0 31944-3 0 9991 2 40014 98.0563 65.9931 0030562 89.2946 271.1785 15.13323025627954 SAUDISAT 4 1 40016U 14033G 25348.87540041 .00000878 00000+0 12347-3 0 9995 2 40016 97.7298 136.7369 0044097 314.6026 45.1591 14.79173240618824 APRIZESAT 9 1 40018U 14033J 25348.91234241 .00000781 00000+0 12253-3 0 9993 2 40018 97.8792 121.9703 0067841 73.1995 287.6642 14.73890274616418 APRIZESAT 10 1 40019U 14033K 25348.89324204 .00000901 00000+0 14922-3 0 9999 2 40019 97.9409 115.2979 0080025 141.6271 219.0666 14.70600407615163 TECHDEMOSAT-1 (TDS-1) 1 40076U 14037H 25348.93250404 .00007076 00000+0 44555-3 0 9996 2 40076 98.3666 318.5833 0007193 155.3140 204.8433 15.09519550620391 TECHNOSAT 1 42829U 17042E 25348.92482478 .00003216 00000+0 23974-3 0 9994 2 42829 97.4045 149.0364 0018298 6.7627 353.3843 15.03434185459000 FLYING LAPTOP 1 42831U 17042G 25348.93683398 .00004605 00000+0 37465-3 0 9995 2 42831 97.4235 147.4567 0014905 42.2980 317.9390 14.99931240458829 HAWK-A 1 43765U 18099H 25348.69268776 .00007978 00000+0 35005-3 0 9991 2 43765 97.4218 38.4152 0036377 211.8760 148.0275 15.21622607385018 HAWK-B 1 43794U 18099AN 25348.70497516 .00006501 00000+0 30006-3 0 9998 2 43794 97.4263 38.1965 0032904 228.3787 131.4628 15.20076760384988 HAWK-C 1 43799U 18099AT 25348.66160803 .00007679 00000+0 30677-3 0 9995 2 43799 97.4194 38.4609 0042875 215.6093 144.2283 15.24553717385763 SALSAT 1 46495U 20068K 25348.69507425 .00007558 00000+0 29347-3 0 9996 2 46495 97.8785 336.0729 0009028 221.1333 138.9225 15.26365217287182 HAWK-2C 1 47502U 21006CT 25348.66190853 .00006960 00000+0 22955-3 0 9993 2 47502 97.2565 31.7256 0008510 134.0028 226.1917 15.31709381271220 HAWK-2A 1 47505U 21006CW 25348.92632584 .00006625 00000+0 21866-3 0 9995 2 47505 97.2617 32.5539 0007967 135.9623 224.2255 15.31710205271265 HAWK-2B 1 47508U 21006CZ 25348.66225374 .00007282 00000+0 24003-3 0 9990 2 47508 97.2483 30.9395 0008749 134.9863 225.2089 15.31708771271222 HAWK-3B 1 48931U 21059BE 25348.46043026 .00029498 00000+0 43699-3 0 9994 2 48931 97.6695 164.7588 0005271 292.9509 67.1188 15.55211693249014 HAWK-3C 1 48948U 21059BX 25348.78190219 .00023639 00000+0 35052-3 0 9999 2 48948 97.6863 170.4174 0005868 292.8518 67.2116 15.55226816249065 HAWK-3A 1 48957U 21059CG 25348.78173793 .00024193 00000+0 35874-3 0 9995 2 48957 97.6789 167.7877 0005414 291.2273 68.8402 15.55224972249065 HAWK-5C 1 52754U 22057Y 25348.90825494 .00012784 00000+0 28507-3 0 9998 2 52754 97.6367 133.0617 0005930 26.2170 333.9376 15.43706789197842 HAWK-5B 1 52756U 22057AA 25348.90808291 .00013168 00000+0 29354-3 0 9994 2 52756 97.6350 131.4183 0006065 21.6517 338.4985 15.43707137197844 HAWK-5A 1 52757U 22057AB 25348.90782188 .00012599 00000+0 28109-3 0 9995 2 52757 97.6357 132.2413 0006260 23.9362 336.2175 15.43691590197849 HAWK-6B 1 55324U 23011A 25348.39691781 .00006748 00000+0 30925-3 0 9998 2 55324 40.5156 348.0930 0003109 208.8475 151.2162 15.20674547159684 HAWK-6C 1 55326U 23011C 25348.39630768 .00006929 00000+0 31726-3 0 9999 2 55326 40.4845 345.1923 0002672 199.2460 160.8248 15.20672098159692 HAWK-6A 1 55327U 23011D 25348.72469219 .00005614 00000+0 25871-3 0 9992 2 55327 40.5003 344.7745 0002494 207.6115 152.4561 15.20674772159742 HAWK-7A 1 56191U 23054P 25348.68276818 .00006154 00000+0 21879-3 0 9999 2 56191 97.2912 235.4140 0008279 0.0340 0.0900 15.29322579148867 HAWK-7B 1 56193U 23054R 25348.68266063 .00002922 00000+0 10529-3 0 9991 2 56193 97.2919 233.6124 0008204 9.8739 350.2662 15.29317201148866 HAWK-7C 1 56200U 23054Y 25348.68241908 .00006415 00000+0 22797-3 0 9992 2 56200 97.2925 234.4338 0007811 2.4182 357.7095 15.29325783148868